WX1N Weather Reports


Display with metric or nautical units.
time (UTC)temp
F
wind
direction
speed
MPH
gust
MPH
rain 1hr
in
rain 24hr
in
rain mn
in
humidity
%
barometer
mb
20260507142003 53 0 0.0 0.0 0.00 0.00 0.00 64 1007.9
20260507141504 52 0 0.0 0.0 0.00 0.00 0.00 65 1007.8
20260507141003 52 0 0.0 0.0 0.00 0.00 0.00 65 1007.8
20260507140504 52 0 0.0 0.0 0.00 0.00 0.00 67 1007.9
20260507140004 51 0 0.0 0.0 0.00 0.00 0.00 69 1007.8
20260507135503 51 0 0.0 0.0 0.00 0.00 0.00 67 1007.8
20260507135004 50 0 0.0 0.0 0.00 0.00 0.00 66 1007.8
20260507134503 50 0 0.0 0.0 0.00 0.00 0.00 69 1007.8
20260507134003 50 0 0.0 0.0 0.00 0.00 0.00 70 1007.8
20260507133504 50 0 0.0 0.0 0.00 0.00 0.00 67 1007.7
20260507133003 51 0 0.0 0.0 0.00 0.00 0.00 69 1007.6
20260507132504 51 0 0.0 0.0 0.00 0.00 0.00 76 1007.5
20260507132003 50 0 0.0 0.0 0.00 0.00 0.00 77 1007.6
20260507131503 50 0 0.0 0.0 0.00 0.00 0.00 82 1007.7
20260507131004 49 0 0.0 0.0 0.00 0.00 0.00 80 1007.7
20260507130503 49 0 0.0 0.0 0.00 0.00 0.00 80 1007.8
20260507130004 48 0 0.0 0.0 0.00 0.00 0.00 87 1007.8
20260507125503 47 0 0.0 0.0 0.00 0.00 0.00 87 1007.7
20260507125004 47 0 0.0 0.0 0.00 0.00 0.00 88 1007.7
20260507124504 47 0 0.0 0.0 0.00 0.00 0.00 86 1007.5
20260507124003 47 0 0.0 0.0 0.00 0.00 0.00 83 1007.5
20260507123504 47 0 0.0 0.0 0.00 0.00 0.00 78 1007.5
20260507123003 47 0 0.0 0.0 0.00 0.00 0.00 76 1007.6
20260507122504 47 0 0.0 0.0 0.00 0.00 0.00 76 1007.5
20260507122004 46 0 0.0 0.0 0.00 0.00 0.00 75 1007.4
20260507121504 46 0 0.0 0.0 0.00 0.00 0.00 75 1007.3
20260507121003 46 0 0.0 0.0 0.00 0.00 0.00 75 1007.2
20260507120503 46 0 0.0 0.0 0.00 0.00 0.00 75 1007.2
20260507120005 46 0 0.0 0.0 0.00 0.00 0.00 75 1007.2
20260507115503 46 0 0.0 0.0 0.00 0.00 0.00 75 1007.2
20260507115004 46 0 0.0 0.0 0.00 0.00 0.00 75 1007.2
20260507114503 47 0 0.0 0.0 0.00 0.00 0.00 75 1007.2
20260507114003 46 0 0.0 0.0 0.00 0.00 0.00 75 1007.2
20260507113504 46 0 0.0 0.0 0.00 0.00 0.00 76 1007.3
20260507113004 44 0 0.0 0.0 0.00 0.00 0.00 76 1007.4
20260507112504 44 0 0.0 0.0 0.00 0.00 0.00 76 1007.3
20260507112003 44 0 0.0 0.0 0.00 0.00 0.00 76 1007.3
20260507111504 44 0 0.0 0.0 0.00 0.00 0.00 76 1007.3
20260507111004 44 0 0.0 0.0 0.00 0.00 0.00 76 1007.2
20260507110504 44 0 0.0 0.0 0.00 0.00 0.00 76 1007.2
20260507110004 43 0 0.0 0.0 0.00 0.00 0.00 77 1007.2
20260507105503 42 0 0.0 0.0 0.00 0.00 0.00 77 1007.3
20260507105004 42 0 0.0 0.0 0.00 0.00 0.00 77 1007.4
20260507104004 42 0 0.0 0.0 0.00 0.00 0.00 77 1007.3
20260507103503 42 0 0.0 0.0 0.00 0.00 0.00 77 1007.3
20260507103004 41 0 0.0 0.0 0.00 0.00 0.00 77 1007.4
20260507102504 41 0 0.0 0.0 0.00 0.00 0.00 78 1007.4
20260507102003 40 0 0.0 0.0 0.00 0.00 0.00 78 1007.2
20260507101504 39 0 0.0 0.0 0.00 0.00 0.00 78 1007.1
20260507101003 39 0 0.0 0.0 0.00 0.00 0.00 78 1007.1
20260507100504 39 0 0.0 0.0 0.00 0.00 0.00 78 1007.1
20260507100004 39 0 0.0 0.0 0.00 0.00 0.00 78 1007.1
20260507095504 39 0 0.0 0.0 0.00 0.00 0.00 78 1007.1
20260507095003 39 0 0.0 0.0 0.00 0.00 0.00 78 1007.3
20260507094504 40 0 0.0 0.0 0.00 0.00 0.00 78 1007.3
20260507094003 40 0 0.0 0.0 0.00 0.00 0.00 78 1007.3
20260507093504 40 0 0.0 0.0 0.00 0.00 0.00 78 1007.3
20260507093003 40 0 0.0 0.0 0.00 0.00 0.00 78 1007.3
20260507092504 39 0 0.0 0.0 0.00 0.00 0.00 78 1007.3
20260507092004 39 0 0.0 0.0 0.00 0.00 0.00 78 1007.3
20260507091503 39 0 0.0 0.0 0.00 0.00 0.00 79 1007.4
20260507091004 39 0 0.0 0.0 0.00 0.00 0.00 79 1007.5
20260507090503 39 0 0.0 0.0 0.00 0.00 0.00 79 1007.5
20260507090005 39 0 0.0 0.0 0.00 0.00 0.00 79 1007.6
20260507085503 40 0 0.0 0.0 0.00 0.00 0.00 79 1007.5
20260507085004 40 0 0.0 0.0 0.00 0.00 0.00 79 1007.4
20260507084503 40 0 0.0 0.0 0.00 0.00 0.00 78 1007.4
20260507084004 41 0 0.0 0.0 0.00 0.00 0.00 78 1007.4
20260507083504 41 0 0.0 0.0 0.00 0.00 0.00 78 1007.2
20260507083004 41 0 0.0 0.0 0.00 0.00 0.00 78 1007.4
20260507082504 41 0 0.0 0.0 0.00 0.00 0.00 78 1007.3
20260507082003 41 0 0.0 0.0 0.00 0.00 0.00 78 1007.3
20260507081504 41 0 0.0 0.0 0.00 0.00 0.00 78 1007.3
20260507081004 42 0 0.0 0.0 0.00 0.00 0.00 78 1007.4
20260507080503 42 0 0.0 0.0 0.00 0.00 0.00 78 1007.2
20260507080004 42 0 0.0 0.0 0.00 0.00 0.00 78 1007.3
20260507075504 42 0 0.0 0.0 0.00 0.00 0.00 78 1007.2
20260507075003 42 0 0.0 0.0 0.00 0.00 0.00 78 1007.2
20260507074504 42 0 0.0 0.0 0.00 0.00 0.00 78 1007.2
20260507074003 43 0 0.0 0.0 0.00 0.00 0.00 78 1007.3
20260507073504 43 0 0.0 0.0 0.00 0.00 0.00 78 1007.4
20260507073003 43 0 0.0 0.0 0.00 0.00 0.00 78 1007.2
20260507072504 43 0 0.0 0.0 0.00 0.00 0.00 78 1007.2
20260507072003 43 0 0.0 0.0 0.00 0.00 0.00 78 1007.2
20260507071504 43 0 0.0 0.0 0.00 0.00 0.00 78 1007.1
20260507071003 43 0 0.0 0.0 0.00 0.00 0.00 78 1007.1
20260507070504 44 0 0.0 0.0 0.00 0.00 0.00 78 1006.7
20260507070009 44 0 0.0 0.0 0.00 0.00 0.00 78 1006.8
20260507065503 44 0 0.0 0.0 0.00 0.00 0.00 78 1006.8
20260507065004 44 0 0.0 0.0 0.00 0.00 0.00 78 1006.8
20260507064504 44 0 0.0 0.0 0.00 0.00 0.00 78 1006.6
20260507064004 44 0 0.0 0.0 0.00 0.00 0.00 78 1006.4
20260507063503 44 0 0.0 0.0 0.00 0.00 0.00 78 1006.4
20260507063004 44 0 0.0 0.0 0.00 0.00 0.00 79 1006.5
20260507062504 44 0 0.0 0.0 0.00 0.00 0.00 79 1006.7
20260507062003 44 0 0.0 0.0 0.00 0.00 0.00 79 1007.0
20260507061504 44 0 0.0 0.0 0.00 0.00 0.00 79 1007.1
20260507061004 44 0 0.0 0.0 0.00 0.00 0.00 78 1006.8
20260507060503 44 0 0.0 0.0 0.00 0.00 0.00 79 1006.8
20260507060004 44 0 0.0 0.0 0.00 0.00 0.00 79 1007.1
20260507055503 44 0 0.0 0.0 0.00 0.00 0.00 79 1007.0
20260507055004 45 0 0.0 0.0 0.00 0.00 0.00 79 1007.1
20260507054504 45 0 0.0 0.0 0.00 0.00 0.00 79 1007.2
20260507054003 45 0 0.0 0.0 0.00 0.00 0.00 79 1007.3
20260507053503 45 0 0.0 0.0 0.00 0.00 0.00 80 1007.5
20260507053003 45 0 0.0 0.0 0.00 0.00 0.00 80 1007.5
20260507052503 45 0 0.0 0.0 0.00 0.00 0.00 80 1007.5
20260507052004 45 0 0.0 0.0 0.00 0.00 0.00 80 1007.4
20260507051502 45 0 0.0 0.0 0.00 0.00 0.00 80 1007.2
20260507051003 45 0 0.0 0.0 0.00 0.00 0.00 80 1007.2
20260507050502 45 0 0.0 0.0 0.00 0.00 0.00 80 1007.1
20260507050002 45 0 0.0 0.0 0.00 0.00 0.00 81 1007.3
20260507045503 46 0 0.0 0.0 0.00 0.00 0.00 81 1007.1
20260507045002 46 0 0.0 0.0 0.00 0.00 0.00 81 1007.0
20260507044503 46 0 0.0 0.0 0.00 0.00 0.00 81 1007.2
20260507044002 46 0 0.0 0.0 0.00 0.00 0.00 81 1007.1
20260507043503 46 0 0.0 0.0 0.00 0.00 0.00 82 1006.9
20260507043002 46 0 0.0 0.0 0.00 0.00 0.00 81 1006.8
20260507042503 47 0 0.0 0.0 0.00 0.00 0.00 81 1006.7
20260507042003 47 0 0.0 0.0 0.00 0.00 0.00 81 1007.0
20260507041502 47 0 0.0 0.0 0.00 0.00 0.00 80 1007.0
20260507041003 47 0 0.0 0.0 0.00 0.00 0.00 81 1007.2
20260507040502 47 0 0.0 0.0 0.00 0.00 0.00 81 1007.0
20260507040003 47 0 0.0 0.0 0.00 0.00 0.00 81 1007.1
20260507035503 47 0 0.0 0.0 0.00 0.00 0.00 81 1007.1
20260507035002 47 0 0.0 0.0 0.00 0.00 0.00 81 1007.0
20260507034503 47 0 0.0 0.0 0.00 0.00 0.00 81 1007.0
20260507034002 47 0 0.0 0.0 0.00 0.00 0.00 81 1006.9
20260507033502 47 0 0.0 0.0 0.00 0.00 0.00 81 1006.8
20260507033003 48 0 0.0 0.0 0.00 0.00 0.00 81 1006.8
20260507032502 48 0 0.0 0.0 0.00 0.00 0.00 82 1007.0
20260507032003 48 0 0.0 0.0 0.00 0.00 0.00 82 1007.0
20260507031502 48 0 0.0 0.0 0.00 0.00 0.00 82 1007.1
20260507031002 48 0 0.0 0.0 0.00 0.00 0.00 82 1007.0
20260507030503 48 0 0.0 0.0 0.00 0.00 0.00 83 1007.0
20260507030002 48 0 0.0 0.0 0.00 0.00 0.00 82 1007.1
20260507025503 48 0 0.0 0.0 0.00 0.00 0.00 82 1007.0
20260507025002 48 0 0.0 0.0 0.00 0.00 0.00 82 1007.1
20260507024502 48 0 0.0 0.0 0.00 0.00 0.00 82 1007.1
20260507024003 48 0 0.0 0.0 0.00 0.00 0.00 82 1007.2
20260507023502 49 0 0.0 0.0 0.00 0.00 0.00 82 1007.2
20260507023003 49 0 0.0 0.0 0.00 0.00 0.00 82 1007.1
20260507022502 49 0 0.0 0.0 0.00 0.00 0.00 82 1007.1
20260507022003 49 0 0.0 0.0 0.00 0.00 0.00 82 1007.2
20260507021502 49 0 0.0 0.0 0.00 0.00 0.00 82 1007.3
20260507021002 49 0 0.0 0.0 0.00 0.00 0.00 83 1007.2
20260507020503 49 0 0.0 0.0 0.00 0.00 0.00 83 1007.2
20260507020002 49 0 0.0 0.0 0.00 0.00 0.00 84 1007.2
20260507015503 49 0 0.0 0.0 0.00 0.00 0.00 84 1007.0
20260507015002 49 0 0.0 0.0 0.00 0.00 0.00 85 1007.0
20260507014503 49 0 0.0 0.0 0.00 0.00 0.00 85 1007.0
20260507014003 49 0 0.0 0.0 0.00 0.00 0.00 85 1007.1
20260507013502 49 0 0.0 0.0 0.00 0.00 0.00 85 1006.9
20260507013003 49 0 0.0 0.0 0.00 0.00 0.00 85 1006.9
20260507012502 50 0 0.0 0.0 0.00 0.00 0.00 84 1006.8
20260507012003 50 0 0.0 0.0 0.00 0.00 0.00 84 1006.6
20260507011502 50 0 0.0 0.0 0.00 0.00 0.00 84 1006.5
20260507011003 50 0 0.0 0.0 0.00 0.00 0.00 84 1006.5
20260507010503 51 0 0.0 0.0 0.00 0.00 0.00 84 1006.2
20260507010002 51 0 0.0 0.0 0.00 0.00 0.00 83 1006.3
20260507005503 51 0 0.0 0.0 0.00 0.00 0.00 83 1006.2
20260507005003 52 0 0.0 0.0 0.00 0.00 0.00 83 1006.0
20260507004502 52 0 0.0 0.0 0.00 0.00 0.00 83 1005.7
20260507004003 52 0 0.0 0.0 0.00 0.00 0.00 84 1005.7
20260507003503 52 0 0.0 0.0 0.00 0.00 0.00 84 1005.6
20260507003003 53 0 0.0 0.0 0.00 0.00 0.00 84 1005.6
20260507002502 53 0 0.0 0.0 0.00 0.00 0.00 84 1005.5
20260507002003 53 0 0.0 0.0 0.00 0.00 0.00 83 1005.2
20260507001503 54 0 0.0 0.0 0.00 0.00 0.00 83 1005.1
20260507001002 54 0 0.0 0.0 0.00 0.00 0.00 83 1004.9
20260507000503 54 0 0.0 0.0 0.00 0.00 0.00 84 1004.7
20260507000002 54 0 0.0 0.0 0.00 0.00 0.00 84 1004.6
20260506235502 55 0 0.0 0.0 0.00 0.00 0.00 83 1004.4
20260506235003 55 0 0.0 0.0 0.00 0.00 0.00 83 1004.4
20260506234502 55 0 0.0 0.0 0.00 0.00 0.00 82 1004.3
20260506234003 55 0 0.0 0.0 0.00 0.00 0.00 82 1004.2
20260506233502 55 0 0.0 0.0 0.00 0.00 0.00 83 1004.0
20260506233003 55 0 0.0 0.0 0.00 0.00 0.00 84 1003.8
20260506232503 55 0 0.0 0.0 0.00 0.00 0.00 86 1003.7
20260506232002 56 0 0.0 0.0 0.00 0.00 0.00 86 1003.8
20260506231502 56 0 0.0 0.0 0.00 0.00 0.00 86 1003.6
20260506231003 58 0 0.0 0.0 0.00 0.00 0.00 84 1003.4
20260506230502 59 0 0.0 0.0 0.00 0.00 0.00 81 1003.3
20260506230003 59 0 0.0 0.0 0.00 0.00 0.00 79 1003.1
20260506225502 60 0 0.0 0.0 0.00 0.00 0.00 79 1003.0
20260506225003 60 0 0.0 0.0 0.00 0.00 0.00 80 1002.8
20260506224502 60 0 0.0 0.0 0.00 0.00 0.00 81 1002.9
20260506224003 60 0 0.0 0.0 0.00 0.00 0.00 81 1002.8
20260506223503 60 0 0.0 0.0 0.00 0.00 0.00 81 1002.8
20260506223002 60 0 0.0 0.0 0.00 0.00 0.00 81 1002.8
20260506222503 60 0 0.0 0.0 0.00 0.00 0.00 81 1002.9
20260506222002 60 0 0.0 0.0 0.00 0.00 0.00 81 1002.9
20260506221503 60 0 0.0 0.0 0.00 0.00 0.00 81 1002.9
20260506221003 60 0 0.0 0.0 0.00 0.00 0.00 80 1003.0
20260506220503 60 0 0.0 0.0 0.00 0.00 0.00 81 1003.0
20260506220003 60 0 0.0 0.0 0.00 0.00 0.00 81 1003.0
20260506215502 60 0 0.0 0.0 0.00 0.00 0.00 82 1003.0
20260506215003 60 0 0.0 0.0 0.00 0.00 0.00 83 1002.7
20260506214502 60 0 0.0 0.0 0.00 0.00 0.00 84 1002.6
20260506214003 60 0 0.0 0.0 0.00 0.00 0.00 83 1002.5
20260506213503 60 0 0.0 0.0 0.00 0.00 0.00 83 1002.5
20260506213002 61 0 0.0 0.0 0.00 0.00 0.00 83 1002.5
20260506212503 61 0 0.0 0.0 0.00 0.00 0.00 83 1002.6
20260506212002 61 0 0.0 0.0 0.00 0.00 0.00 84 1002.5
20260506211503 61 0 0.0 0.0 0.00 0.00 0.00 83 1002.6
20260506211002 61 0 0.0 0.0 0.00 0.00 0.00 83 1002.5
20260506210503 61 0 0.0 0.0 0.00 0.00 0.00 83 1002.6
20260506210003 61 0 0.0 0.0 0.00 0.00 0.00 82 1002.6
20260506205502 61 0 0.0 0.0 0.00 0.00 0.00 81 1002.7
20260506205003 61 0 0.0 0.0 0.00 0.00 0.00 80 1002.7
20260506204502 61 0 0.0 0.0 0.00 0.00 0.00 80 1002.7
20260506204003 61 0 0.0 0.0 0.00 0.00 0.00 80 1002.7
20260506203503 61 0 0.0 0.0 0.00 0.00 0.00 79 1002.7
20260506203002 61 0 0.0 0.0 0.00 0.00 0.00 77 1002.8
20260506202503 61 0 0.0 0.0 0.00 0.00 0.00 75 1002.7
20260506202003 61 0 0.0 0.0 0.00 0.00 0.00 75 1002.8
20260506201503 61 0 0.0 0.0 0.00 0.00 0.00 75 1002.8
20260506201003 61 0 0.0 0.0 0.00 0.00 0.00 75 1002.9
20260506200502 61 0 0.0 0.0 0.00 0.00 0.00 76 1003.0
20260506200003 61 0 0.0 0.0 0.00 0.00 0.00 76 1003.0
20260506195503 61 0 0.0 0.0 0.00 0.00 0.00 76 1003.2
20260506195002 61 0 0.0 0.0 0.00 0.00 0.00 77 1003.1
20260506194503 61 0 0.0 0.0 0.00 0.00 0.00 78 1003.1
20260506194002 61 0 0.0 0.0 0.00 0.00 0.00 78 1003.2
20260506193503 61 0 0.0 0.0 0.00 0.00 0.00 79 1003.2
20260506193002 61 0 0.0 0.0 0.00 0.00 0.00 79 1003.2
20260506192503 61 0 0.0 0.0 0.00 0.00 0.00 80 1003.2
20260506192003 61 0 0.0 0.0 0.00 0.00 0.00 80 1003.2
20260506191502 61 0 0.0 0.0 0.00 0.00 0.00 81 1003.3
20260506191003 61 0 0.0 0.0 0.00 0.00 0.00 81 1003.3
20260506190502 61 0 0.0 0.0 0.00 0.00 0.00 81 1003.3
20260506190003 61 0 0.0 0.0 0.00 0.00 0.00 81 1003.4
20260506185503 61 0 0.0 0.0 0.00 0.00 0.00 80 1003.6
20260506185003 61 0 0.0 0.0 0.00 0.00 0.00 80 1003.6
20260506184503 61 0 0.0 0.0 0.00 0.00 0.00 81 1003.7
20260506184002 61 0 0.0 0.0 0.00 0.00 0.00 82 1003.8
20260506183503 61 0 0.0 0.0 0.00 0.00 0.00 82 1003.7
20260506183002 61 0 0.0 0.0 0.00 0.00 0.00 82 1003.8
20260506182503 61 0 0.0 0.0 0.00 0.00 0.00 83 1003.9
20260506182002 61 0 0.0 0.0 0.00 0.00 0.00 83 1003.9
20260506181503 61 0 0.0 0.0 0.00 0.00 0.00 83 1004.0
20260506181003 61 0 0.0 0.0 0.00 0.00 0.00 83 1004.0
20260506180503 61 0 0.0 0.0 0.00 0.00 0.00 83 1004.1
20260506180004 61 0 0.0 0.0 0.00 0.00 0.00 82 1004.3
20260506175502 61 0 0.0 0.0 0.00 0.00 0.00 82 1004.4
20260506175003 61 0 0.0 0.0 0.00 0.00 0.00 83 1004.5
20260506174502 61 0 0.0 0.0 0.00 0.00 0.00 83 1004.5
20260506174003 61 0 0.0 0.0 0.00 0.00 0.00 82 1004.8
20260506173502 61 0 0.0 0.0 0.00 0.00 0.00 82 1005.0
20260506173003 61 0 0.0 0.0 0.00 0.00 0.00 82 1005.1
20260506172502 61 0 0.0 0.0 0.00 0.00 0.00 82 1005.1
20260506172003 61 0 0.0 0.0 0.00 0.00 0.00 82 1005.0
20260506171503 61 0 0.0 0.0 0.00 0.00 0.00 81 1005.0
20260506171002 61 0 0.0 0.0 0.00 0.00 0.00 82 1005.1
20260506170503 61 0 0.0 0.0 0.00 0.00 0.00 82 1005.1
20260506170002 61 0 0.0 0.0 0.00 0.00 0.00 83 1004.9
20260506165503 61 0 0.0 0.0 0.00 0.00 0.00 84 1004.9
20260506165003 61 0 0.0 0.0 0.00 0.00 0.00 85 1005.0
20260506164503 61 0 0.0 0.0 0.00 0.00 0.00 86 1005.0
20260506164003 61 0 0.0 0.0 0.00 0.00 0.00 86 1005.0
20260506163502 61 0 0.0 0.0 0.00 0.00 0.00 87 1005.3
20260506163003 61 0 0.0 0.0 0.00 0.00 0.00 87 1005.2
20260506162503 62 0 0.0 0.0 0.00 0.00 0.00 87 1005.4
20260506162003 62 0 0.0 0.0 0.00 0.00 0.00 87 1005.3
20260506161503 62 0 0.0 0.0 0.00 0.00 0.00 87 1005.4
20260506161002 62 0 0.0 0.0 0.00 0.00 0.00 86 1005.4
20260506160503 62 0 0.0 0.0 0.00 0.00 0.00 86 1005.5
20260506160002 62 0 0.0 0.0 0.00 0.00 0.00 85 1005.4
20260506155503 62 0 0.0 0.0 0.00 0.00 0.00 85 1005.5
20260506155003 62 0 0.0 0.0 0.00 0.00 0.00 86 1005.7
20260506154503 62 0 0.0 0.0 0.00 0.00 0.00 86 1005.8
20260506154003 62 0 0.0 0.0 0.00 0.00 0.00 86 1005.9
20260506153502 62 0 0.0 0.0 0.00 0.00 0.00 86 1006.0
20260506153003 62 0 0.0 0.0 0.00 0.00 0.00 86 1006.1
20260506152502 62 0 0.0 0.0 0.00 0.00 0.00 86 1006.1
20260506152003 62 0 0.0 0.0 0.00 0.00 0.00 85 1006.4
20260506151502 62 0 0.0 0.0 0.00 0.00 0.00 84 1006.4
20260506151003 62 0 0.0 0.0 0.00 0.00 0.00 83 1006.6
20260506150503 62 0 0.0 0.0 0.00 0.00 0.00 83 1006.6
20260506150003 62 0 0.0 0.0 0.00 0.00 0.00 82 1006.7
20260506145503 62 0 0.0 0.0 0.00 0.00 0.00 82 1006.8
20260506145003 62 0 0.0 0.0 0.00 0.00 0.00 82 1006.7
20260506144503 62 0 0.0 0.0 0.00 0.00 0.00 82 1006.5
20260506144002 62 0 0.0 0.0 0.00 0.00 0.00 81 1006.5
20260506143503 62 0 0.0 0.0 0.00 0.00 0.00 82 1006.3
20260506143003 62 0 0.0 0.0 0.00 0.00 0.00 81 1006.3
20260506142503 62 0 0.0 0.0 0.00 0.00 0.00 81 1006.2